Time,TemperatureF,DewpointF,PressureIn,WindDirection,WindDirectionDegrees,WindSpeedMPH,WindSpeedGustMPH,Humidity,HourlyPrecipIn,Conditions,Clouds,dailyrainin,SoftwareType,DateUTC
2013-02-05 00:52:00,0.0,-10.0,-100.00,NE,35,0.0,1.0,62,0.00,,,-99.99,,2013-02-05 06:52:00,
2013-02-05 01:01:00,0.0,-10.0,-100.00,NE,35,0.0,1.0,62,0.00,,,-99.99,,2013-02-05 07:01:00,
2013-02-05 01:11:00,0.0,-10.0,-100.00,NE,35,0.0,1.0,62,0.00,,,-99.99,,2013-02-05 07:11:00,
2013-02-05 01:22:00,0.0,-10.0,-100.00,NE,35,0.0,1.0,62,0.00,,,-99.99,,2013-02-05 07:22:00,
2013-02-05 01:52:00,2.0,-9.0,-100.00,NNW,330,0.0,1.0,61,0.00,,,-99.99,,2013-02-05 07:52:00,
2013-02-05 02:01:00,2.0,-9.0,-100.00,NNW,330,0.0,1.0,61,0.00,,,-99.99,,2013-02-05 08:01:00,
2013-02-05 02:11:00,2.0,-9.0,-100.00,NNW,330,0.0,1.0,61,0.00,,,-99.99,,2013-02-05 08:11:00,
2013-02-05 02:21:00,2.0,-9.0,-100.00,NNW,330,0.0,1.0,61,0.00,,,-99.99,,2013-02-05 08:21:00,
2013-02-05 02:52:00,6.0,-6.0,-100.00,SE,140,1.0,3.0,57,0.00,,,-99.99,,2013-02-05 08:52:00,
2013-02-05 03:02:00,6.0,-6.0,-100.00,SE,140,1.0,3.0,57,0.00,,,-99.99,,2013-02-05 09:02:00,
2013-02-05 03:11:00,6.0,-6.0,-100.00,SE,140,1.0,3.0,57,0.00,,,-99.99,,2013-02-05 09:11:00,
2013-02-05 03:21:00,6.0,-6.0,-100.00,SE,140,1.0,3.0,57,0.00,,,-99.99,,2013-02-05 09:21:00,
2013-02-05 03:52:00,9.0,-3.0,-100.00,SSW,210,0.0,5.0,58,0.38,,,-99.99,,2013-02-05 09:52:00,
2013-02-05 04:02:00,9.0,-3.0,-100.00,SSW,210,0.0,5.0,58,0.38,,,-99.99,,2013-02-05 10:02:00,
2013-02-05 04:11:00,9.0,-3.0,-100.00,SSW,210,0.0,5.0,58,0.38,,,-99.99,,2013-02-05 10:11:00,
2013-02-05 04:21:00,9.0,-3.0,-100.00,SSW,210,0.0,5.0,58,0.38,,,-99.99,,2013-02-05 10:21:00,
2013-02-05 04:52:00,11.0,2.0,-100.00,SSW,200,1.0,6.0,69,0.00,,,-99.99,,2013-02-05 10:52:00,
2013-02-05 05:01:00,11.0,2.0,-100.00,SSW,200,1.0,6.0,69,0.00,,,-99.99,,2013-02-05 11:01:00,
2013-02-05 05:11:00,11.0,2.0,-100.00,SSW,200,1.0,6.0,69,0.00,,,-99.99,,2013-02-05 11:11:00,
2013-02-05 05:22:00,11.0,2.0,-100.00,SSW,200,1.0,6.0,69,0.00,,,-99.99,,2013-02-05 11:22:00,
2013-02-05 05:52:00,12.0,4.0,-100.00,NW,305,1.0,5.0,71,0.00,,,-99.99,,2013-02-05 11:52:00,
2013-02-05 06:01:00,12.0,4.0,-100.00,NW,305,1.0,5.0,71,0.00,,,-99.99,,2013-02-05 12:01:00,
2013-02-05 06:12:00,12.0,4.0,-100.00,NW,305,1.0,5.0,71,0.00,,,-99.99,,2013-02-05 12:12:00,
2013-02-05 06:22:00,12.0,4.0,-100.00,NW,305,1.0,5.0,71,0.00,,,-99.99,,2013-02-05 12:22:00,
2013-02-05 06:31:00,13.0,6.0,-100.00,WSW,240,2.0,7.0,72,0.00,,,-99.99,,2013-02-05 12:31:00,
2013-02-05 06:52:00,13.0,6.0,-100.00,WSW,240,2.0,7.0,72,0.00,,,-99.99,,2013-02-05 12:52:00,
2013-02-05 07:01:00,13.0,6.0,-100.00,WSW,240,2.0,7.0,72,0.00,,,-99.99,,2013-02-05 13:01:00,
2013-02-05 07:12:00,13.0,6.0,-100.00,WSW,240,2.0,7.0,72,0.00,,,-99.99,,2013-02-05 13:12:00,
2013-02-05 07:22:00,13.0,6.0,-100.00,WSW,240,2.0,7.0,72,0.00,,,-99.99,,2013-02-05 13:22:00,
2013-02-05 07:52:00,13.0,6.0,-100.00,WSW,240,1.0,6.0,72,0.00,,,-99.99,,2013-02-05 13:52:00,
2013-02-05 08:01:00,13.0,6.0,-100.00,WSW,240,1.0,6.0,72,0.00,,,-99.99,,2013-02-05 14:01:00,
2013-02-05 08:12:00,13.0,6.0,-100.00,WSW,240,1.0,6.0,72,0.00,,,-99.99,,2013-02-05 14:12:00,
2013-02-05 08:21:00,13.0,6.0,-100.00,WSW,240,1.0,6.0,72,0.00,,,-99.99,,2013-02-05 14:21:00,
2013-02-05 08:52:00,15.0,8.0,-100.00,West,260,1.0,4.0,72,0.00,,,-99.99,,2013-02-05 14:52:00,
2013-02-05 09:02:00,15.0,8.0,-100.00,West,260,1.0,4.0,72,0.00,,,-99.99,,2013-02-05 15:02:00,
2013-02-05 09:11:00,15.0,8.0,-100.00,West,260,1.0,4.0,72,0.00,,,-99.99,,2013-02-05 15:11:00,
2013-02-05 09:21:00,15.0,8.0,-100.00,West,260,1.0,4.0,72,0.00,,,-99.99,,2013-02-05 15:21:00,
2013-02-05 10:32:00,21.0,10.0,-100.00,WNW,285,3.0,8.0,63,0.00,,,-99.99,,2013-02-05 16:32:00,
2013-02-05 10:52:00,21.0,10.0,-100.00,WNW,285,3.0,8.0,63,0.00,,,-99.99,,2013-02-05 16:52:00,
2013-02-05 11:01:00,21.0,10.0,-100.00,WNW,285,3.0,8.0,63,0.00,,,-99.99,,2013-02-05 17:01:00,
2013-02-05 11:11:00,21.0,10.0,-100.00,WNW,285,3.0,8.0,63,0.00,,,-99.99,,2013-02-05 17:11:00,
2013-02-05 11:22:00,21.0,10.0,-100.00,WNW,285,3.0,8.0,63,0.00,,,-99.99,,2013-02-05 17:22:00,
2013-02-05 11:52:00,22.0,12.0,-100.00,WNW,295,4.0,7.0,66,0.00,,,-99.99,,2013-02-05 17:52:00,
2013-02-05 12:02:00,22.0,12.0,-100.00,WNW,295,4.0,7.0,66,0.00,,,-99.99,,2013-02-05 18:02:00,
2013-02-05 12:11:00,22.0,12.0,-100.00,WNW,295,4.0,7.0,66,0.00,,,-99.99,,2013-02-05 18:11:00,
2013-02-05 12:22:00,22.0,12.0,-100.00,WNW,295,4.0,7.0,66,0.00,,,-99.99,,2013-02-05 18:22:00,
2013-02-05 13:52:00,24.0,12.0,-100.00,NNW,345,4.0,16.0,60,0.00,,,-99.99,,2013-02-05 19:52:00,
2013-02-05 14:02:00,24.0,12.0,-100.00,NNW,345,4.0,16.0,60,0.00,,,-99.99,,2013-02-05 20:02:00,
2013-02-05 14:11:00,24.0,12.0,-100.00,NNW,345,4.0,16.0,60,0.00,,,-99.99,,2013-02-05 20:11:00,
2013-02-05 14:21:00,24.0,12.0,-100.00,NNW,345,4.0,16.0,60,0.00,,,-99.99,,2013-02-05 20:21:00,
2013-02-05 14:52:00,24.0,10.0,-100.00,NNW,340,7.0,21.0,56,0.00,,,-99.99,,2013-02-05 20:52:00,
2013-02-05 15:02:00,24.0,10.0,-100.00,NNW,340,7.0,21.0,56,0.00,,,-99.99,,2013-02-05 21:02:00,
2013-02-05 15:11:00,24.0,10.0,-100.00,NNW,340,7.0,21.0,56,0.00,,,-99.99,,2013-02-05 21:11:00,
2013-02-05 15:22:00,24.0,10.0,-100.00,NNW,340,7.0,21.0,56,0.00,,,-99.99,,2013-02-05 21:22:00,
2013-02-05 15:52:00,23.0,7.0,-100.00,North,350,6.0,14.0,50,0.00,,,-99.99,,2013-02-05 21:52:00,
2013-02-05 16:52:00,22.0,5.0,-100.00,NW,325,4.0,12.0,48,0.00,,,-99.99,,2013-02-05 22:52:00,
2013-02-05 17:53:00,19.0,3.0,-100.00,NW,315,2.0,8.0,49,0.00,,,-99.99,,2013-02-05 23:53:00,
2013-02-05 18:52:00,15.0,1.0,-100.00,NW,310,0.0,3.0,55,0.00,,,-99.99,,2013-02-06 00:52:00,
2013-02-05 19:53:00,13.0,2.0,-100.00,WNW,300,1.0,4.0,61,0.00,,,-99.99,,2013-02-06 01:53:00,
2013-02-05 20:01:00,13.0,2.0,-100.00,WNW,300,1.0,4.0,61,0.00,,,-99.99,,2013-02-06 02:01:00,
2013-02-05 20:11:00,13.0,2.0,-100.00,WNW,300,1.0,4.0,61,0.00,,,-99.99,,2013-02-06 02:11:00,
2013-02-05 20:22:00,13.0,2.0,-100.00,WNW,300,1.0,4.0,61,0.00,,,-99.99,,2013-02-06 02:22:00,
2013-02-05 20:53:00,9.0,0.0,-100.00,South,170,0.0,2.0,67,0.00,,,-99.99,,2013-02-06 02:53:00,
2013-02-05 21:53:00,5.0,-3.0,-100.00,ENE,75,0.0,1.0,70,0.00,,,-99.99,,2013-02-06 03:53:00,
2013-02-05 22:52:00,2.0,-5.0,-100.00,East,100,0.0,1.0,72,0.00,,,-99.99,,2013-02-06 04:52:00,
2013-02-05 23:53:00,0.0,-7.0,-100.00,NE,50,0.0,1.0,72,0.00,,,-99.99,,2013-02-06 05:53:00,